Location: Newark
(34.3481°N, 134.0494°E)
Time: 15:23:30
(UTC+00:00)

Vanguard 3 - Pass Details

Date: 01 February 2020
Orbit: 508 x 3263 km, 33.3° (Epoch: 25 February)

Event Time Altitude Azimuth Distance (km) Brightness Sun altitude
Rises 05:24:21 0° 229° (SW) 5,565 12.5 30.2°
Reaches altitude 10° 05:27:34 10° 225° (SW) 4,871 12.7 29.8°
Maximum altitude 05:42:33 60° 150° (SSE) 3,346 10.8 27.9°
Drops below altitude 10° 06:01:57 10° 77° (ENE) 6,141 11.2 25.2°
Sets 06:06:35 0° 75° (ENE) 7,035 11.4 24.6°
